THORAD DELTA 1 DEB

Satellite information

Favourite Embed

Satellite Type and Status

DEBRISIN ORBIT

Key statistics

Satellite THORAD DELTA 1 DEB at a glance.

Uptime

18561

Days in orbit

Revolutions

≈ 12.5

Per day

Orbit

SSO

Sun Synchronous Orbit

Inclination

101.3

Latest

Satellite identification and parameters

Extended collection of information and parameters for THORAD DELTA 1 DEB.

Object identification

Identified? True

Debris? True

Object name: THORAD DELTA 1 DEB

International designator: 1974-089CT

Object number (NORAD): 8556

Object ID (CCSDS): 8556

Country: UNITED STATES OF AMERICA (US)

Current information (Y/N): Y

RCS size: SMALL

Orbital parameters

Period: 114.883 minutes

Inclination: 101.3051 deg

SMA: 7828.234 km

Apoapsis: 1512.217 km

Periapsis: 1387.982 km

RAAN: 36.5576 deg

Eccentricy: 0.00793502

Argument of periapsis: 1.5264 deg

Mean anomaly: 27.6072 deg

Mean motion: 12.53450057 rev/day

Mean motion (dot): 0.00000045 rev/day2

B* drag term: 0.0005410536 1/REarth

Two-line elements (TLE)

Creation date: Sept. 8, 2025, 6:18 p.m.

Reference frame: TEME

Reference center: EARTH

Epoch: Sept. 8, 2025, 8:16 a.m. UTC

TLE line 0: 0 THORAD DELTA 1 DEB

TLE line 1: 1 08556U 74089CT 25251.34502391 .00000045 00000-0 54105-3 0 9991

TLE line 2: 2 08556 101.3051 36.5576 0079350 1.5264 27.6072 12.53450057321654

Live tracking on map

Real-time ground track for satellite THORAD DELTA 1 DEB.

In-orbit conjunctions

A list of the most updated potential collisions computed for object THORAD DELTA 1 DEB.

Target Orbit TCA Probability of collision Miss distance Type
COSMOS 2159 LEO 2024-11-02 22:48:45 0.0001132723 146.0 (m) PAYLOAD

Associated space launch

Meteorological satellite using radiometric imaging

THORAD DELTA 1 DEB was lifted into orbit during the mission ‘Delta 2310 | NOAA 4’, on board a Delta 2310 space rocket.

The launch took place on Nov. 15, 1974, 5:11 p.m. from Space Launch Complex 2W.

For more information about the launch, click the button.

Launch to space Delta 2310 | NOAA 4
Delta 2310 | NOAA 4

Agency: N/A

Status: Launch Successful

Launch date: Nov. 15, 1974, 5:11 p.m. UTC

Rocket: Delta 2310

Launch pad: Space Launch Complex 2W

Location: Vandenberg SFB, CA, USA

...

Latest news about this satellite

There are no fresh news available about this satellite. Check back as we update our databases every day.


Newsletter sign-up

Weekly statistics, charts and insights to help you stay on top of the space industry.